Terug naar catalogus

SWISSCUBE

ActiefAmateurradioSSO
NORAD 35932·PAYLOAD·🇨🇭 Switzerland

Gelanceerd Sep 23, 2009 vanaf Satish Dhawan Space Centre

Loading…

Volgende Passages (komende 24 uur)

TLE

VersSource: Space-Track

Epoch: Sep 14, 2026, 04:12 UTC

1 35932U 09051B   26257.17516900  .00000727  00000-0  15278-3 0  9990
2 35932  98.3945 166.5801 0005718 304.2301  55.8358 14.62622865902167

Volg SWISSCUBE in realtime met AllMySat

Download on the App Store